Temp
13 12 11 13 11 10 10 17 20 20 20 18 16 15 15 15 14 14 14 13 12 12 13 12 12 12 11 11 11 10 10 9 9 8 8 8 8 9 9 9 9 9 9
12 12 12 12 11 11 11 18 21 20 19 16 15 15 14 14 15 14 13 14 14 12 12 12 11 11 11 11 10 10 9 8 9 9 8 4 7 8 8 9 9 9 9
6 8 8 9 12 12 12 18 20 19 19 17 14 14 14 13 13 12 12 12 12 11 11 11 12 11 11 10 10 10 9 8 10 10 11 5 6 7 8 8 9 8 9
2 4 4 4 5 6 11 17 20 19 18 15 14 14 14 13 12 12 12 11 11 11 12 11 11 11 11 10 10 10 10 9 9 10 11 11 10 5 5 7 8 8 8
-0 0 1 1 2 3 4 10 19 19 18 14 14 14 13 13 12 11 11 10 10 10 11 11 11 11 11 11 10 9 10 10 10 10 10 10 11 11 7 4 6 7 8
-2 -2 -2 -1 -1 1 1 4 11 17 17 15 14 13 13 12 11 10 10 9 10 9 9 10 11 10 11 11 10 10 10 10 11 10 12 12 12 11 10 6 5 6 8
-4 -3 -3 -3 -3 -1 -2 1 4 8 14 14 13 13 13 12 11 10 10 9 8 8 8 8 8 10 10 10 10 10 10 10 11 11 12 13 13 13 12 11 8 7 8
-4 -4 -4 -4 -4 -3 -3 -1 2 4 8 13 13 13 12 11 10 10 9 9 8 8 8 8 8 9 10 10 10 11 10 10 11 11 12 13 13 13 14 13 10 4 6
-5 -5 -5 -5 -5 -5 -4 -3 -0 2 4 12 12 12 11 11 10 10 9 9 9 8 8 7 7 8 8 9 10 9 9 10 10 11 11 12 12 13 13 13 14 13 2
-5 -5 -5 -5 -6 -6 -5 -5 -3 -0 2 3 12 11 11 10 10 9 9 9 8 8 7 7 7 7 7 8 8 8 9 10 10 10 11 12 12 12 13 13 13 13 13
-6 -6 -5 -6 -6 -6 -6 -6 -5 -2 1 0 7 11 10 10 10 9 9 8 8 7 7 7 6 6 7 7 7 8 8 9 10 10 11 11 11 12 12 13 13 13 13
-6 -6 -6 -6 -6 -6 -6 -6 -6 -4 -0 -0 1 10 10 10 9 9 8 8 8 7 7 6 6 6 6 7 7 7 8 8 9 10 10 10 11 11 11 12 12 12 12
-6 -6 -6 -6 -6 -6 -6 -6 -6 -5 -4 -0 1 4 10 10 9 9 9 8 8 7 7 6 6 6 6 6 7 7 8 8 9 10 11 11 10 10 11 11 11 11 11
-7 -7 -7 -7 -7 -7 -6 -6 -6 -6 -5 -2 0 0 5 9 9 9 9 8 8 6 6 5 5 5 5 6 6 7 8 9 9 10 11 11 11 11 11 11 11 11 10
-7 -7 -7 -7 -7 -7 -7 -6 -6 -6 -5 -4 -1 -1 -0 6 9 9 8 8 7 6 5 5 5 5 6 6 7 8 8 8 8 9 10 11 11 11 11 11 11 10 10
-7 -8 -8 -7 -7 -7 -7 -6 -6 -6 -5 -5 -4 -3 -1 2 6 8 8 7 6 6 5 5 5 5 5 6 7 8 8 8 9 9 9 10 10 10 10 10 10 11 10
-8 -8 -8 -8 -8 -7 -7 -7 -6 -6 -5 -5 -5 -4 -3 -1 1 6 7 7 7 6 6 5 6 5 6 7 7 7 7 8 9 9 9 9 9 9 9 8 8 9 9
-8 -8 -8 -8 -8 -7 -7 -7 -6 -6 -6 -6 -6 -5 -4 -2 -1 3 7 7 7 6 6 6 6 5 6 6 7 8 8 8 9 10 9 9 9 8 8 8 8 7 7
-9 -9 -8 -9 -8 -8 -8 -7 -7 -6 -6 -6 -6 -6 -5 -4 -3 -1 2 6 6 6 6 6 6 6 5 6 7 7 7 7 8 8 8 8 8 9 8 7 7 7 6
-9 -9 -9 -8 -8 -8 -8 -8 -7 -7 -7 -7 -6 -6 -5 -4 -4 -2 -1 3 6 5 5 5 6 6 5 5 6 6 5 5 5 6 7 7 8 7 7 6 7 6 6
-9 -9 -9 -9 -8 -8 -8 -8 -8 -8 -8 -7 -7 -6 -5 -4 -4 -3 -1 1 5 5 5 5 5 5 5 5 5 5 5 5 5 5 5 6 6 5 6 6 6 7 6
-9 -9 -9 -9 -9 -9 -9 -8 -8 -8 -8 -8 -7 -6 -5 -4 -4 -3 -2 0 3 5 4 4 4 4 5 5 4 4 5 5 6 5 5 5 4 6 6 5 6 4 3
-10 -9 -10 -10 -10 -10 -10 -9 -9 -9 -8 -8 -7 -6 -5 -4 -4 -3 -2 -1 1 3 3 3 3 3 4 5 4 4 4 5 6 6 6 5 5 4 5 5 3 3 3
-10 -10 -10 -10 -10 -10 -10 -10 -9 -9 -9 -8 -8 -7 -6 -4 -4 -3 -3 -2 -1 1 2 2 3 2 3 4 4 4 3 3 4 4 4 5 4 3 3 2 1 2 1
-11 -11 -11 -11 -11 -11 -11 -10 -10 -10 -9 -9 -8 -7 -6 -5 -5 -4 -3 -2 -1 -1 1 2 2 2 2 4 4 3 3 4 4 4 3 2 1 1 1 1 0 0 -0
-11 -12 -12 -13 -12 -12 -12 -10 -10 -10 -10 -9 -8 -7 -6 -5 -5 -4 -3 -2 -2 -1 -0 1 2 2 3 3 4 3 2 3 3 2 0 -0 -0 -0 -0 -0 -1 -1 -1
Height
689 691 690 697 703 706 713 693 686 690 697 705 712 719 727 733 741 747 751 758 765 772 775 787 797 806 812 819 828 835 841 849 852 855 867 871 873 875 874 876 878 880 882
681 683 694 693 695 695 685 679 674 682 690 698 708 716 722 732 738 743 750 756 762 770 774 783 793 805 810 818 826 831 837 844 849 852 862 874 876 875 874 877 876 879 880
693 688 687 680 682 684 680 671 671 676 685 691 703 712 720 730 736 739 747 753 761 767 769 779 785 802 807 813 820 825 830 836 844 850 851 867 869 871 873 874 873 877 878
705 694 683 682 678 680 681 674 668 672 679 685 695 701 710 721 728 734 744 750 756 761 767 776 784 794 802 811 815 822 826 829 835 846 846 849 852 862 871 872 870 873 876
717 710 699 696 693 680 681 662 662 666 673 682 688 696 705 715 722 730 736 743 751 756 760 767 777 792 798 806 812 818 823 827 830 836 840 847 850 851 855 867 866 869 873
722 715 710 700 696 695 687 669 662 663 668 676 684 690 698 707 717 724 730 736 746 753 759 763 772 783 789 799 807 813 818 823 829 831 837 840 844 846 849 856 861 863 869
726 722 711 704 703 691 689 679 672 663 664 671 679 687 692 697 707 716 722 730 738 746 754 761 769 772 780 792 803 810 815 822 824 828 834 839 842 842 845 848 854 861 866
731 725 725 720 710 697 699 677 669 666 667 666 674 681 687 694 702 710 716 724 731 739 748 756 763 769 778 784 798 804 810 818 821 827 833 836 840 841 843 845 847 860 864
735 726 725 726 713 700 683 696 677 672 667 666 671 676 681 689 696 705 713 720 727 734 741 750 756 764 773 779 788 796 803 811 815 821 829 832 836 839 841 844 846 847 862
742 736 725 715 711 705 698 692 682 678 672 665 666 672 678 685 692 701 707 713 721 728 735 744 751 759 766 775 780 790 797 801 810 816 824 828 832 835 839 843 845 847 848
737 729 728 719 711 703 706 687 681 679 671 676 666 667 675 681 688 695 701 707 714 722 729 737 745 753 760 770 776 782 789 794 803 810 818 824 827 831 836 840 843 845 848
747 743 727 713 722 716 707 696 693 680 672 670 666 664 670 677 684 690 695 702 709 715 722 730 739 746 754 762 767 778 783 790 795 802 811 819 823 827 832 836 840 841 844
751 738 731 729 721 711 701 704 694 680 685 663 671 664 665 672 679 684 690 697 703 709 717 724 732 741 747 755 764 773 779 787 790 796 804 811 817 821 826 831 837 838 842
751 745 738 734 722 718 716 709 701 698 685 679 672 668 664 669 672 679 685 690 696 703 710 718 727 734 741 749 759 766 775 781 788 793 796 803 809 815 820 825 831 834 838
750 748 743 732 727 721 717 708 704 698 687 682 673 674 668 666 670 672 679 685 690 697 706 713 723 729 736 744 754 761 770 777 784 788 788 798 804 810 815 820 825 830 833
758 751 746 740 729 726 722 716 708 698 692 688 685 671 669 664 665 669 674 681 687 694 702 709 715 722 730 738 748 757 763 769 776 781 786 794 800 806 810 815 822 825 827
767 762 752 740 734 726 722 714 708 704 698 693 680 675 673 664 668 670 672 676 683 690 697 702 709 717 724 732 742 753 759 762 770 776 782 788 795 799 806 812 815 820 823
768 760 750 742 734 730 725 717 710 708 701 691 686 679 675 671 674 669 670 673 679 684 690 698 702 710 718 726 737 746 750 759 766 770 778 785 788 793 799 806 810 814 819
766 759 753 749 743 737 730 722 719 711 699 697 691 684 681 679 678 672 670 672 676 681 685 692 699 704 712 720 729 739 746 754 761 768 774 778 783 788 793 800 805 809 813
767 765 760 755 748 741 732 729 720 711 705 698 695 691 689 684 680 675 671 671 674 678 682 688 694 700 707 713 721 730 739 746 753 761 767 770 773 781 788 796 798 802 806
768 763 758 752 749 742 736 728 717 712 711 705 696 694 694 684 679 676 672 671 672 676 681 685 689 696 702 709 715 722 730 737 745 752 760 762 771 779 784 788 792 797 801
767 760 755 748 744 737 733 726 722 722 713 705 698 701 691 685 681 679 675 671 671 673 678 683 689 696 699 705 712 718 725 730 737 745 753 760 769 775 778 781 788 794 800
766 761 756 750 746 741 738 734 728 721 709 703 702 698 692 687 684 680 677 674 673 673 675 681 686 691 697 703 711 717 722 728 734 742 749 757 764 769 777 780 785 788 793
764 759 756 752 750 745 738 733 726 721 715 709 704 699 695 691 687 683 679 677 673 675 675 679 683 687 694 700 708 715 721 729 734 742 748 754 760 766 773 777 782 786 791
766 762 758 755 749 743 736 732 727 720 715 711 707 702 698 693 689 683 681 678 675 675 678 679 682 683 689 694 700 706 713 722 728 735 745 751 759 765 769 775 780 786 789
766 762 758 754 749 744 737 734 729 723 719 714 712 706 704 699 690 685 682 681 680 677 676 681 681 683 685 691 697 706 713 717 725 733 739 747 753 758 766 770 777 783 787
Wind_Speed
13 14 24 27 23 38 46 46 36 34 32 29 29 29 25 31 33 36 43 46 46 46 47 42 42 39 38 39 36 35 34 30 33 28 19 13 10 9 10 11 9 11 9
12 10 20 17 22 32 43 35 32 34 33 32 32 29 34 34 36 42 47 44 46 47 48 46 42 37 36 36 37 38 33 31 36 14 11 2 1 7 10 9 10 10 11
16 12 13 18 19 29 33 32 29 36 37 34 31 27 31 29 28 34 38 41 48 48 45 45 46 39 38 39 40 41 34 30 34 27 8 3 4 6 11 15 14 12 13
18 18 18 19 28 32 34 37 34 33 33 34 35 36 27 27 26 35 40 44 46 48 47 45 41 41 40 36 40 41 40 38 34 29 9 6 12 4 2 10 18 17 16
17 18 17 21 24 35 37 27 34 32 33 36 35 37 31 28 31 33 36 38 41 48 50 46 46 45 43 40 41 39 39 37 36 32 19 11 9 9 5 3 8 18 20
18 17 19 21 27 28 38 30 6 30 32 37 35 38 35 29 32 29 35 36 41 43 44 49 49 48 42 43 42 41 40 37 39 35 28 19 7 8 5 3 4 7 17
15 16 18 17 23 28 36 28 21 16 32 36 37 37 37 37 39 39 36 36 36 38 45 44 46 50 48 44 42 43 40 39 39 38 31 19 11 13 9 7 6 5 5
14 15 14 16 21 25 31 31 25 20 10 33 34 36 36 38 36 41 37 38 40 44 47 50 49 48 47 44 46 43 42 39 37 37 30 23 16 12 14 8 13 3 2
16 17 14 16 19 25 31 29 25 22 24 25 32 32 36 36 34 37 41 40 40 41 47 47 46 46 44 45 46 42 43 41 37 35 35 30 20 14 14 9 13 10 3
16 14 15 21 22 23 27 27 27 21 31 27 32 32 35 35 36 38 37 37 38 40 45 45 46 45 46 44 43 39 41 44 40 35 33 32 27 18 14 13 13 8 5
17 17 15 21 24 26 25 31 35 28 30 32 8 32 33 34 35 37 38 39 39 39 44 45 47 48 46 42 40 37 38 41 43 38 35 33 27 23 19 16 14 12 9
15 14 15 24 21 22 25 28 30 31 31 30 24 19 30 32 34 33 35 37 38 41 44 43 41 43 45 43 41 37 38 38 40 39 35 32 31 27 22 20 18 16 14
15 16 15 13 21 25 28 27 30 33 31 29 27 9 30 32 32 33 34 37 37 39 41 41 41 41 41 40 38 37 37 38 40 42 39 35 32 28 27 24 22 18 16
15 15 15 15 23 24 24 25 27 28 30 28 21 17 8 25 33 33 35 38 41 40 40 40 41 40 40 41 40 37 38 38 38 42 39 37 35 32 28 26 25 21 19
17 16 16 16 21 24 26 27 27 28 29 28 24 20 14 4 22 32 34 36 39 39 40 39 37 38 39 39 39 39 38 38 38 39 35 35 35 33 32 30 27 25 23
17 17 17 15 20 25 25 25 26 28 26 23 20 23 21 13 4 27 32 33 35 35 37 38 40 40 40 40 42 40 38 39 38 35 32 32 30 30 28 29 29 28 27
16 15 16 16 24 26 27 27 28 26 23 22 26 27 23 21 15 7 29 31 32 35 36 37 38 39 38 43 43 40 37 39 39 37 34 30 32 27 27 26 24 24 25
16 15 17 23 27 27 28 29 27 23 22 23 25 28 26 21 19 8 21 27 30 34 34 35 37 37 38 45 46 41 38 37 35 33 34 35 30 29 27 27 26 26 26
14 19 21 24 24 24 27 26 22 23 23 24 24 27 26 22 20 17 6 19 24 27 29 33 34 36 37 44 48 45 35 33 32 32 32 33 30 28 27 28 31 30 30
18 19 23 21 21 24 26 22 22 22 24 26 24 23 21 18 18 18 12 2 22 24 27 29 34 34 33 39 45 48 36 32 32 31 31 29 26 28 25 32 30 29 29
20 22 21 20 21 23 24 21 22 24 26 26 25 23 20 19 18 18 14 7 12 24 25 28 28 31 34 37 43 43 37 35 32 31 31 27 29 29 27 26 25 24 19
19 21 20 22 24 25 25 23 21 26 27 26 24 22 22 19 19 17 15 10 5 23 24 24 24 26 30 32 40 44 40 38 37 35 33 31 30 25 21 23 20 19 17
18 18 19 20 22 24 24 21 24 27 29 26 25 24 22 19 18 18 17 14 1 14 19 21 20 23 24 27 37 41 36 36 34 33 31 27 25 22 20 21 22 20 19
18 19 19 19 21 24 25 24 25 28 25 24 24 24 22 19 19 16 15 16 9 6 15 16 17 22 26 27 31 33 27 28 28 25 25 24 23 23 24 23 21 20 20
15 17 17 18 21 24 25 27 27 28 25 23 22 22 21 19 18 17 16 13 11 8 9 16 20 25 23 31 36 39 36 35 30 27 26 27 27 25 24 24 23 22 21
16 17 19 19 23 24 26 28 28 27 24 21 20 20 18 17 17 17 17 12 9 7 4 11 20 23 27 30 32 32 30 34 34 32 30 25 25 26 26 28 28 24 22
Wind_Direction
248 235 267 258 246 265 260 247 194 192 190 187 169 169 163 170 173 170 174 171 169 170 165 163 165 165 161 165 163 159 155 151 153 130 122 134 150 165 163 180 182 188 193
237 246 249 225 239 256 279 229 198 191 192 178 177 175 169 171 182 176 178 183 186 182 172 172 166 170 165 165 165 162 152 155 164 148 123 129 168 189 184 198 188 204 207
351 341 339 340 269 270 273 210 205 192 192 185 168 162 164 167 165 168 169 173 178 176 180 171 173 175 173 169 172 173 168 164 173 166 146 142 191 148 199 210 201 211 216
346 347 352 355 345 330 298 239 198 193 185 173 171 167 167 170 168 169 172 174 176 176 179 178 176 178 176 172 176 182 182 174 176 185 185 158 147 160 163 220 213 212 220
346 345 357 347 346 348 334 310 200 196 186 173 176 174 168 177 172 170 170 169 173 179 183 181 180 181 183 180 181 185 188 189 179 183 174 162 157 142 138 178 194 219 224
347 350 349 1 349 349 342 336 324 201 191 176 179 181 172 169 166 165 164 167 175 181 182 185 185 185 183 188 190 192 193 195 193 189 190 175 165 179 153 138 143 189 222
350 348 357 356 352 349 338 335 2 4 177 175 180 184 179 173 171 171 170 169 171 177 183 182 180 182 187 192 197 199 197 200 198 198 198 193 194 184 171 139 129 143 190
351 351 354 347 349 357 329 341 2 353 310 180 182 183 176 176 178 178 177 178 178 183 186 187 187 186 189 193 201 203 201 201 203 204 203 198 200 190 183 165 148 81 173
349 346 346 351 356 350 345 327 355 359 344 201 181 177 174 177 179 181 185 184 186 185 189 188 185 182 183 186 192 194 194 200 202 204 207 207 202 196 194 191 178 147 155
344 344 348 349 359 358 339 341 360 357 355 349 180 179 179 180 183 182 184 183 185 185 187 186 186 185 187 191 191 191 194 197 201 203 205 208 209 202 196 192 190 185 150
348 346 343 357 352 4 342 355 349 352 6 346 245 173 177 180 186 185 188 187 185 183 187 187 188 188 186 187 186 189 191 191 197 201 205 207 204 202 200 198 200 199 195
343 337 343 354 355 353 353 359 345 350 0 342 341 184 177 178 184 185 187 188 186 186 187 184 185 185 184 186 186 188 190 190 191 199 202 208 209 209 211 213 216 212 207
347 347 354 349 351 356 357 349 346 351 344 355 345 357 177 180 185 188 189 188 185 188 187 184 183 185 184 183 184 189 189 192 195 202 202 206 210 209 211 215 219 215 213
348 352 351 345 351 355 345 348 352 341 351 350 353 354 61 188 186 184 183 183 186 184 182 183 184 183 182 184 187 188 195 197 201 206 204 208 211 211 211 214 217 215 215
352 351 344 347 350 347 347 346 346 343 355 346 0 355 358 96 189 180 181 182 182 182 181 178 182 181 181 183 187 191 194 196 200 207 205 212 217 220 221 221 220 220 218
346 343 342 340 350 345 342 341 342 345 351 353 346 3 5 31 61 180 178 178 180 179 179 179 179 181 187 190 194 193 193 196 201 202 206 213 216 221 225 229 234 236 228
341 339 339 343 339 341 341 343 338 340 349 351 2 4 2 18 356 201 180 177 177 178 181 182 183 185 187 192 195 193 192 195 204 205 207 213 214 214 219 224 232 236 239
341 339 339 341 338 338 340 341 342 344 350 360 1 1 0 7 352 2 184 178 179 179 180 185 185 185 186 187 188 192 199 202 207 210 212 213 212 211 214 216 222 228 234
337 335 337 334 334 338 342 340 339 347 358 354 357 357 355 358 346 358 34 180 177 178 182 185 185 188 193 200 198 198 196 203 209 213 217 216 217 219 223 224 224 226 230
337 333 336 333 338 343 344 339 347 350 354 349 345 351 350 353 348 349 349 97 186 184 181 184 190 191 191 198 206 206 197 196 201 212 218 221 224 222 216 220 218 220 226
335 339 338 340 337 346 347 346 353 351 342 342 349 348 348 359 355 349 347 329 183 183 180 183 185 191 198 199 199 196 192 193 193 203 210 211 217 215 207 210 213 219 226
339 340 343 343 341 349 349 348 352 340 343 346 348 336 352 5 360 357 351 346 185 175 175 172 174 187 191 195 192 191 197 196 191 193 200 202 202 200 195 199 202 205 202
334 340 344 344 343 346 346 342 342 342 344 348 343 342 348 1 1 5 1 353 275 175 163 169 167 175 190 191 191 187 190 193 190 196 197 193 192 188 187 194 189 190 194
331 340 344 342 337 342 342 341 343 346 345 343 341 341 341 355 2 8 8 3 17 200 171 168 168 168 176 178 181 179 181 189 192 198 191 185 181 181 181 180 184 191 194
327 341 339 335 331 337 340 344 347 348 345 343 340 338 338 345 354 3 2 2 0 1 223 193 183 166 172 184 181 177 180 189 185 171 165 163 169 169 170 177 180 183 181
344 340 335 333 331 336 338 348 353 347 342 339 335 333 339 340 356 357 359 16 5 357 334 224 210 194 190 181 180 178 174 181 174 163 158 160 163 163 166 168 170 179 182